YUNHAI 1-02 DEB

Satellite information

Favourite Embed

Satellite Type and Status

DEBRISIN ORBIT

Key statistics

Satellite YUNHAI 1-02 DEB at a glance.

Uptime

2111

Days in orbit

Revolutions

≈ 14.8

Per day

Orbit

SSO

Sun Synchronous Orbit

Inclination

98.4

Latest

Satellite identification and parameters

Extended collection of information and parameters for YUNHAI 1-02 DEB.

Object identification

Identified? True

Debris? True

Object name: YUNHAI 1-02 DEB

International designator: 2019-063M

Object number (NORAD): 48193

Object ID (CCSDS): 48193

Country: PEOPLES REPUBLIC OF CHINA (PRC)

Current information (Y/N): Y

RCS size: SMALL

Orbital parameters

Period: 97.354 minutes

Inclination: 98.4266 deg

SMA: 7010.179 km

Apoapsis: 640.907 km

Periapsis: 623.181 km

RAAN: 219.62 deg

Eccentricy: 0.0012643

Argument of periapsis: 65.8516 deg

Mean anomaly: 294.4014 deg

Mean motion: 14.79139489 rev/day

Mean motion (dot): 0.00025763 rev/day2

B* drag term: 0.0034669 1/REarth

Two-line elements (TLE)

Creation date: July 5, 2025, 5:45 p.m.

Reference frame: TEME

Reference center: EARTH

Epoch: July 5, 2025, 1:24 p.m. UTC

TLE line 0: 0 YUNHAI 1-02 DEB

TLE line 1: 1 48193U 19063M 25186.55863098 .00025763 00000-0 34669-2 0 9993

TLE line 2: 2 48193 98.4266 219.6200 0012643 65.8516 294.4014 14.79139489225276

Live tracking on map

Real-time ground track for satellite YUNHAI 1-02 DEB.

In-orbit conjunctions

A list of the most updated potential collisions computed for object YUNHAI 1-02 DEB.

Target Orbit TCA Probability of collision Miss distance Type
ATLAS 5 CENTAUR R/B LEO 2024-11-08 04:58:12 0.001055666 677.0 (m) ROCKET BODY

Associated space launch

The Yunhai-1 satellite is designed for detecting environmental elements in the atmosphere and ocean, the space environment, disaster prevention and reduction, and scientific experimentation. It is made by the Shanghai Institute of Spaceflight Technology.

YUNHAI 1-02 DEB was lifted into orbit during the mission ‘Long March 2D | Yunhai-1-02’, on board a Long March 2D space rocket.

The launch took place on Sept. 25, 2019, 12:54 a.m. from Launch Area 4 (SLS-2 / 603).

For more information about the launch, click the button.

Launch to space Long March 2D | Yunhai-1-02
Long March 2D | Yunhai-1-02

Agency: N/A

Status: Launch Successful

Launch date: Sept. 25, 2019, 12:54 a.m. UTC

Rocket: Long March 2D

Launch pad: Launch Area 4 (SLS-2 / 603)

Location: Jiuquan Satellite Launch Center, People's Republic of China

...

Latest news about this satellite

News about space launch
Breakup of China’s Yunhai-1 (02) satellite linked to space debris collision

U.S. space tracking has linked the breakup of Chinese satellite Yunhai-1 (02) to a collision with a small piece of debris from a Russian satellite launch, according to NASA.


Newsletter sign-up

Weekly statistics, charts and insights to help you stay on top of the space industry.